Location: Newark
(41.0833°N, 9.3833°E)
Time: 15:29:35
(UTC+00:00)

Envisat - Visible Passes

Search period start: 01 April 2020 00:00
Search period end: 11 April 2020 00:00
Orbit: 764 x 766 km, 98.1° (Epoch: 01 April)

Date Brightness Start Highest point End Pass type
(mag) Time Alt. Az. Time Alt. Az. Time Alt. Az.
05 Apr 6.3 18:34:33 10° WSW 18:36:39 12° W 18:38:45 10° WNW visible
07 Apr 6.6 04:27:11 10° ENE 04:28:40 11° E 04:30:08 10° ESE visible
08 Apr 6.0 18:22:08 10° SW 18:25:12 16° W 18:28:18 10° NW visible
